[[{"header":{"parameterUnit":"m.s-1","parameterCategory":1,"la1":30.2991,"la2":30.254,"lo1":-89.0895,"lo2":-89.0444,"dy":0.0017,"dx":0.0017,"nx":28,"ny":28,"refTime":"2025-04-20T21:00:00:Z","depth":0,"parameterNumber":2,"parameterNumberName":"U-component_of_WINDS"},"data":[0,0,0,0,0,0,0,0,0,0,0,0,0,0,0,0,0,0,0,0,0,0,0,0,0,0,0,0,0,0,0,0,0,0,0,0,0,0,0,0,0,0,0,0,0,0,0,0,0,0,0,0,0,0,0,0,0,0,-5.3728,-5.373,0,-5.3892,-5.3894,-5.3896,-5.3891,-5.3889,-5.3887,-5.3885,-5.4051,-5.4057,-5.4064,0,0,0,0,0,0,0,0,0,0,0,0,0,-5.3411,-5.3417,-5.3728,-5.373,-5.3732,-5.3892,-5.3894,-5.3896,-5.3892,-5.3889,-5.3886,-5.3884,-5.4049,-5.4057,-5.4064,0,0,0,0,0,0,0,0,0,0,0,0,0,-5.3559,-5.3419,-5.3728,-5.3749,-5.3753,-5.3891,-5.3894,-5.3897,-5.3892,-5.3889,-5.3886,-5.3883,-5.4046,-5.4056,-5.4066,-5.4193,0,0,-5.4095,-5.41,0,0,0,0,0,0,0,0,-5.3551,-5.3571,-5.3744,-5.3748,-5.3752,-5.3868,-5.3843,-5.3996,-5.3893,-5.3839,-5.3885,-5.3881,-5.3993,-5.4007,-5.4045,-5.4201,-5.4208,-5.4096,-5.4102,-5.4106,-5.4109,0,0,0,0,0,0,0,-5.3541,-5.3564,-5.3793,-5.3746,-5.3752,-5.3751,-5.3768,-5.3872,-5.3933,-5.3844,-5.3844,-5.3863,-5.3994,-5.4035,-5.4049,-5.421,-5.4096,-5.4105,-5.4111,-5.4114,-5.448,-5.4484,0,0,0,0,0,0,-5.3526,-5.3555,-5.3788,-5.3798,-5.3641,-5.3759,-5.3779,-5.3834,-5.3932,-5.3943,-5.3866,-5.3863,-5.402,-5.4037,-5.4054,-5.421,-5.4106,-5.4115,-5.4121,-5.4476,-5.4481,-5.4485,0,0,0,0,0,0,-5.3519,-5.3547,-5.3781,-5.3677,-5.3707,-5.3768,-5.3831,-5.3839,-5.388,-5.3949,-5.3959,-5.3897,-5.4018,-5.4041,-5.4159,-5.4215,-5.412,-5.4129,-5.4472,-5.4478,-5.4483,-5.4521,0,0,0,0,0,0,-5.351,-5.3544,-5.3593,-5.3678,-5.3712,-5.3882,-5.3834,-5.3845,-5.3897,-5.3894,-5.398,-5.3991,-5.4017,-5.4144,-5.4169,-5.4227,-5.4136,-5.4467,-5.4474,-5.4481,-5.4515,-5.4528,-5.4538,0,0,0,0,0,-5.3499,-5.3597,-5.3595,-5.3623,-5.3774,-5.3886,-5.3905,-5.3934,-5.3902,-5.3951,-5.3996,-5.3988,-5.4206,-5.4156,-5.4184,-5.4246,-5.4463,-5.4472,-5.4481,-5.451,-5.4525,-5.4538,0,0,0,0,0,0,-5.3515,-5.3608,-5.3608,-5.3736,-5.3803,-5.3885,-5.3948,-5.3949,-5.4026,-5.402,-5.4052,-5.4072,-5.419,-5.423,-5.4173,-5.4375,-5.4331,-5.4345,-5.4344,-5.4359,-5.437,-5.4357,-5.4144,0,0,0,0,0,-5.3534,-5.3617,-5.3694,-5.3799,-5.3833,-5.3885,-5.3935,-5.3951,-5.4022,-5.405,-5.4103,-5.4172,-5.4256,-5.431,-5.4391,-5.4522,-5.4541,-5.4579,-5.4591,-5.46,-5.4611,-5.4684,-5.4702,-5.4514,-5.4513,-5.4513,0,0,-5.3573,-5.3634,-5.3684,-5.3804,-5.3858,-5.3943,-5.3909,-5.4,-5.4063,-5.4064,-5.4178,-5.422,-5.4299,-5.4424,-5.4482,-5.4462,-5.4668,-5.4611,-5.4618,-5.4624,-5.4695,-5.4712,-5.4728,-5.4519,-5.4518,-5.4517,0,0,-5.3687,-5.3742,-5.3836,-5.3892,-5.3975,-5.4009,-5.4032,-5.4115,-5.4143,-5.4259,-5.4261,-5.4338,-5.4481,-5.4538,-5.4585,-5.4725,-5.4721,-5.475,-5.481,-5.488,-5.4895,-5.4908,-5.4957,-5.4974,-5.4762,-5.4762,-5.4762,0,-5.3725,-5.3853,-5.3885,-5.3977,-5.403,-5.4036,-5.4132,-5.4184,-5.4289,-5.4325,-5.4302,-5.4484,-5.4537,-5.4676,-5.471,-5.4749,-5.4776,-5.4739,-5.4891,-5.4904,-5.4917,-5.4964,-5.4982,-5.4765,-5.4765,-5.4764,-5.4764,0,-5.3895,-5.3985,-5.4051,-5.4153,-5.4214,-5.4307,-5.4353,-5.4411,-5.4424,-5.4461,-5.458,-5.4645,-5.4739,-5.4774,-5.4787,-5.4916,-5.4901,-5.4884,-5.4839,-5.4937,-5.4982,-5.5,-5.4769,-5.4768,-5.4767,-5.4767,0,0,-5.402,-5.4141,-5.4165,-5.4212,-5.4305,-5.4375,-5.447,-5.4563,-5.4612,-5.4686,-5.4765,-5.4889,-5.4875,-5.4929,-5.4948,-5.5011,-5.5117,-5.4986,-5.4989,-5.5007,-5.5262,-5.5272,-5.5293,-5.5116,-5.512,-5.5123,-5.5255,0,-5.4143,-5.4311,-5.4343,-5.4489,-5.4572,-5.4582,-5.4664,-5.4731,-5.4769,-5.4845,-5.4887,-5.4974,-5.4949,-5.4982,-5.5044,-5.509,-5.5168,-5.5082,-5.519,-5.5193,-5.5167,-5.5316,-5.5327,-5.5448,-5.5273,-5.5276,-5.5278,0,-5.4307,-5.4386,-5.454,-5.4624,-5.466,-5.4734,-5.4823,-5.4896,-5.4973,-5.4996,-5.5058,-5.5072,-5.5171,-5.5125,-5.5262,-5.5202,-5.5249,-5.5279,-5.5285,-5.5293,-5.5239,-5.5327,-5.5488,-5.5505,-5.5306,-5.5304,-5.5302,0,-5.4382,-5.4526,-5.4637,-5.4678,-5.4779,-5.483,-5.4875,-5.4948,-5.5003,-5.5082,-5.5117,-5.5207,-5.5255,-5.5324,-5.5361,-5.5324,-5.5495,-5.5452,-5.5517,-5.5516,-5.555,-5.5547,-5.5718,-5.5584,-5.5584,-5.5583,-5.5583,0,-5.4514,-5.4607,-5.4672,-5.474,-5.4846,-5.4884,-5.4987,-5.5031,-5.5097,-5.5174,-5.5189,-5.526,-5.5307,-5.5386,-5.5416,-5.5525,-5.5547,-5.5568,-5.5574,-5.5566,-5.5562,-5.5594,-5.5586,-5.5588,-5.5587,-5.5586,-5.5585,0,-5.4613,-5.466,-5.4782,-5.4869,-5.4893,-5.4967,-5.5041,-5.5108,-5.5148,-5.5245,-5.527,-5.5332,-5.5426,-5.5471,-5.5588,-5.5608,-5.5731,-5.5733,-5.5705,-5.5707,-5.5769,-5.5761,-5.5965,-5.5993,-5.5842,-5.5843,-5.5844,0,-5.4692,-5.4765,-5.486,-5.4913,-5.4959,-5.5045,-5.5101,-5.5142,-5.52,-5.5295,-5.535,-5.5445,-5.5522,-5.5672,-5.5727,-5.5817,-5.582,-5.5885,-5.5833,-5.5822,-5.5819,-5.5813,-5.5821,-5.5893,-5.5895,-5.5896,-5.5897,0,-5.4829,-5.4849,-5.493,-5.5021,-5.5088,-5.5161,-5.5232,-5.5275,-5.5328,-5.5393,-5.5489,-5.555,-5.567,-5.5763,-5.5857,-5.5903,-5.5909,-5.5914,-5.5933,-5.5923,-5.5903,-5.5914,-5.5728,-5.5908,-5.5907,-5.5906,-5.5905,-5.5905,-5.492,-5.4985,-5.5063,-5.5153,-5.5212,-5.5279,-5.5346,-5.5395,-5.5477,-5.5577,-5.5597,-5.57,-5.5776,-5.5903,-5.5953,-5.6034,-5.6019,-5.6047,-5.6054,-5.606,-5.6062,-5.5893,-5.6051,-5.6051,-5.6051,-5.6051,-5.605,0,-5.5056,-5.5107,-5.519,-5.529,-5.5362,-5.5363,-5.5443,-5.5502,-5.5592,-5.5664,-5.5741,-5.5852,-5.5944,-5.6008,-5.6102,-5.6154,-5.6159,-5.6177,-5.6172,-5.6183,-5.6071,-5.6044,-5.6172,-5.6172,-5.6172,-5.6171,-5.6171,-5.6171,-5.5134,-5.5245,-5.5275,-5.5415,-5.5466,-5.5566,-5.5612,-5.5674,-5.5732,-5.5856,-5.5933,-5.5974,-5.6043,-5.6142,-5.6227,-5.6243,-5.6276,-5.6294,-5.631,-5.6204,-5.6191,-5.6178,-5.6153,-5.6301,-5.6302,-5.6415,-5.6416,-5.6417]},{"header":{"parameterUnit":"m.s-1","parameterCategory":1,"la1":30.2991,"la2":30.254,"lo1":-89.0895,"lo2":-89.0444,"dy":0.0017,"dx":0.0017,"nx":28,"ny":28,"refTime":"2025-04-20T21:00:00:Z","depth":0,"parameterNumber":3,"parameterNumberName":"V-component_of_WINDS"},"data":[0,0,0,0,0,0,0,0,0,0,0,0,0,0,0,0,0,0,0,0,0,0,0,0,0,0,0,0,0,0,0,0,0,0,0,0,0,0,0,0,0,0,0,0,0,0,0,0,0,0,0,0,0,0,0,0,0,0,3.7824,3.7824,0,3.7859,3.7859,3.786,3.7864,3.7863,3.7863,3.7863,3.7895,3.7896,3.7898,0,0,0,0,0,0,0,0,0,0,0,0,0,3.776,3.7761,3.7824,3.7824,3.7825,3.7859,3.7859,3.786,3.7864,3.7863,3.7863,3.7863,3.7895,3.7896,3.7898,0,0,0,0,0,0,0,0,0,0,0,0,0,3.779,3.7761,3.7824,3.7831,3.7832,3.7859,3.7859,3.786,3.7864,3.7863,3.7863,3.7862,3.7894,3.7896,3.7898,3.7919,0,0,3.7903,3.7904,0,0,0,0,0,0,0,0,3.7789,3.7793,3.783,3.7831,3.7832,3.7856,3.7849,3.788,3.7864,3.7852,3.7863,3.7862,3.7883,3.7885,3.7893,3.792,3.7922,3.7904,3.7905,3.7905,3.7906,0,0,0,0,0,0,0,3.7787,3.7791,3.7838,3.783,3.7831,3.7832,3.7836,3.7854,3.7869,3.7853,3.7853,3.7857,3.7883,3.7891,3.7894,3.7922,3.7903,3.7905,3.7906,3.7907,3.7971,3.7972,0,0,0,0,0,0,3.7783,3.779,3.7837,3.7839,3.7809,3.7834,3.7838,3.7849,3.7869,3.7872,3.7858,3.7857,3.7888,3.7892,3.7895,3.7922,3.7905,3.7907,3.7908,3.797,3.7971,3.7972,0,0,0,0,0,0,3.7782,3.7788,3.7835,3.7814,3.782,3.7835,3.7848,3.785,3.7858,3.7873,3.7876,3.7863,3.7888,3.7892,3.7914,3.7923,3.7908,3.7909,3.797,3.7971,3.7972,3.7975,0,0,0,0,0,0,3.778,3.7787,3.7795,3.7814,3.7822,3.7854,3.7848,3.7851,3.7861,3.7861,3.7879,3.7881,3.7888,3.7911,3.7915,3.7925,3.7911,3.7969,3.797,3.7971,3.7974,3.7976,3.7978,0,0,0,0,0,3.7778,3.7794,3.7796,3.7801,3.7832,3.7854,3.7858,3.7866,3.7862,3.787,3.7881,3.7881,3.7922,3.7913,3.7918,3.7929,3.7968,3.797,3.7971,3.7974,3.7976,3.7978,0,0,0,0,0,0,3.7773,3.7796,3.7798,3.7821,3.7836,3.7855,3.7865,3.7868,3.7883,3.7882,3.7891,3.7895,3.7916,3.7925,3.7915,3.7951,3.7944,3.7947,3.7945,3.7947,3.7949,3.7946,3.7912,0,0,0,0,0,3.7775,3.7792,3.7811,3.7829,3.7837,3.785,3.786,3.7865,3.788,3.7886,3.7897,3.7911,3.7928,3.7938,3.7953,3.7976,3.798,3.7986,3.7988,3.7989,3.7991,3.8005,3.8008,3.7977,3.7977,3.7977,0,0,3.7779,3.7793,3.7803,3.7829,3.784,3.7857,3.7855,3.7872,3.7885,3.7888,3.7909,3.7919,3.7935,3.7958,3.7968,3.7965,3.8001,3.7991,3.7992,3.7993,3.8007,3.801,3.8012,3.7978,3.7977,3.7977,0,0,3.7794,3.7806,3.7824,3.7837,3.7856,3.7865,3.7869,3.7889,3.7895,3.7917,3.7921,3.7936,3.7963,3.7975,3.7985,3.8008,3.8009,3.8012,3.8021,3.8035,3.8037,3.804,3.8048,3.8051,3.8014,3.8014,3.8014,0,3.7795,3.7822,3.7832,3.785,3.7862,3.7868,3.7886,3.7898,3.792,3.7928,3.7925,3.7961,3.7972,3.7998,3.8004,3.8011,3.8017,3.801,3.8036,3.8039,3.8041,3.8049,3.8053,3.8015,3.8015,3.8015,3.8015,0,3.7823,3.7842,3.7853,3.7877,3.789,3.7908,3.7921,3.7933,3.7938,3.7948,3.7971,3.7985,3.8004,3.8011,3.8015,3.8038,3.8036,3.8035,3.8028,3.8044,3.8052,3.8055,3.8015,3.8015,3.8015,3.8015,0,0,3.7834,3.7866,3.787,3.7882,3.7905,3.7919,3.7938,3.7958,3.7968,3.7984,3.8,3.8025,3.8024,3.8035,3.8041,3.8053,3.8072,3.805,3.8051,3.8054,3.8099,3.81,3.8104,3.8073,3.8074,3.8074,3.8098,0,3.7852,3.7887,3.7898,3.7927,3.7944,3.7952,3.7968,3.7984,3.7994,3.801,3.8021,3.8039,3.8036,3.8043,3.8056,3.8067,3.8081,3.8065,3.8088,3.8088,3.8083,3.8108,3.8108,3.813,3.8101,3.8102,3.8102,0,3.7877,3.7896,3.7927,3.795,3.7958,3.7972,3.7993,3.8009,3.8027,3.8034,3.8047,3.8053,3.8073,3.8066,3.8094,3.8084,3.8094,3.8101,3.8102,3.8104,3.8096,3.811,3.8137,3.814,3.8107,3.8107,3.8106,0,3.7883,3.7916,3.7939,3.7949,3.7976,3.7986,3.7998,3.8016,3.8028,3.8046,3.8055,3.8074,3.8085,3.81,3.8111,3.8105,3.8138,3.8132,3.8144,3.8144,3.815,3.8149,3.8178,3.8157,3.8157,3.8156,3.8156,0,3.7902,3.792,3.7942,3.7957,3.7978,3.7992,3.8012,3.8024,3.8041,3.8057,3.8065,3.808,3.8094,3.8111,3.8119,3.8142,3.8146,3.8152,3.8154,3.8151,3.8151,3.8157,3.8156,3.8157,3.8157,3.8157,3.8157,0,3.7911,3.7927,3.7953,3.7977,3.7984,3.7999,3.802,3.8034,3.8045,3.8066,3.8072,3.809,3.811,3.8123,3.8149,3.8155,3.818,3.8181,3.8174,3.8175,3.8186,3.8185,3.822,3.8226,3.8201,3.8201,3.8201,0,3.7922,3.7937,3.7964,3.7977,3.7989,3.8008,3.8022,3.8036,3.805,3.8073,3.8085,3.8107,3.8125,3.8158,3.8172,3.8192,3.8194,3.8205,3.8197,3.8194,3.8195,3.8194,3.8196,3.8206,3.8207,3.8207,3.8207,0,3.794,3.7948,3.7967,3.799,3.8007,3.8025,3.8043,3.8053,3.807,3.8085,3.8108,3.8122,3.815,3.8171,3.8193,3.8205,3.8209,3.821,3.8214,3.8211,3.8206,3.8209,3.8177,3.8209,3.8208,3.8208,3.8208,3.8208,3.795,3.7965,3.7987,3.8009,3.8025,3.8043,3.8058,3.8073,3.8092,3.8117,3.8124,3.8147,3.8167,3.8197,3.8209,3.8228,3.8226,3.8231,3.8233,3.8234,3.8234,3.8204,3.8232,3.8232,3.8232,3.8232,3.8232,0,3.7969,3.7985,3.8005,3.8032,3.805,3.8054,3.8075,3.8089,3.8111,3.8129,3.8148,3.8174,3.8196,3.8213,3.8235,3.8247,3.8249,3.8252,3.8251,3.8254,3.8234,3.8229,3.825,3.825,3.825,3.825,3.825,3.825,3.7981,3.8006,3.8017,3.805,3.8065,3.809,3.8102,3.8118,3.8133,3.8163,3.8182,3.8194,3.8212,3.8236,3.8256,3.8261,3.8268,3.8271,3.8276,3.8257,3.8255,3.8253,3.8248,3.8273,3.8273,3.8294,3.8294,3.8294]}]]